Simultaneous Nadir Overpasses (SNOs) Predictions

Prediction of SNOs between GOES-15 and NOAA-20 Satellite Orbit:

Table of predicted SNOs for the next 14.0 days since TLE Epoch: 8/3/2024
Index Date Time (GOES-15) GOES-15 Lat,Lon NOAA-20 Lat,Lon Distance(km) Time Diff (sec)
1 08/03/2024 21:11:03 0.39, 61.50 0.06, 62.98 168.60 80
2 08/05/2024 09:32:59 -0.41, 61.47 -1.26, 57.68 432.12 80
3 08/06/2024 09:14:15 -0.40, 61.50 -0.23, 62.20 80.60 80
4 08/08/2024 21:19:55 0.41, 61.66 0.46, 61.48 21.27 80
5 08/09/2024 20:58:31 0.40, 61.70 -0.58, 66.00 490.60 80
6 08/11/2024 09:20:27 -0.42, 61.68 -0.61, 60.69 111.22 80
7 08/12/2024 09:04:22 -0.41, 61.71 0.37, 65.23 401.04 80
8 08/13/2024 21:26:08 0.42, 61.85 0.83, 59.97 213.79 80
9 08/14/2024 21:04:43 0.41, 61.89 -0.16, 64.50 297.20 80
10 08/16/2024 09:26:39 -0.42, 61.89 -1.01, 59.19 307.33 80
